Volver al catálogo

STARLINK-34017

ActivoComunicacionesVLEO
NORAD 64339·PAYLOAD·🇺🇸 United States

Lanzado Jun 10, 2025 desde Cape Canaveral Space Force Station

Loading…

Próximos Pases (próximas 24 horas)

TLE

ActualizadoSource: CelesTrak SupGP

Época: Sep 15, 2026, 02:51 UTC

1 64339C 25124Y   26258.11923611  .00063083  00000+0  22851-2 0  2583
2 64339  42.9997 131.8933 0001450 273.3668   3.4862 15.27543095    15

Sigue STARLINK-34017 en tiempo real con AllMySat

Download on the App Store